Regional Weather Roundup
Issued by NWS

Home | Current Version | Previous Version | Text Only | Print | Product List | Glossary Off
Versions: 1 2 3 4 5 6 7 8 9 10 11 12 13 14 15 16 17 18 19 20 21 22 23 24 25 26 27 28 29 30 31 32 33 34 35 36 37 38 39 40 41 42 43 44 45 46 47 48 49 50

000
ASUS43 KBIS 300910
RWRND

NORTH DAKOTA REGIONAL WEATHER ROUNDUP
NATIONAL WEATHER SERVICE BISMARCK ND
400 AM CDT TUE SEP 30 2014

NOTE: "FAIR" INDICATES FEW OR NO CLOUDS BELOW 12,000 FEET WITH NO
SIGNIFICANT WEATHER AND/OR OBSTRUCTIONS TO VISIBILITY.


NDZ001>003-009>011-017-301000-
NORTHWEST NORTH DAKOTA

CITY           SKY/WX    TMP DP  RH WIND       PRES   REMARKS
WILLISTON      CLOUDY    54  50  86 SE12      29.78F
MINOT          CLOUDY    51  46  83 E12       29.85F
MINOT AFB      CLOUDY    51  49  94 SE12      29.84F
$$

NDZ018>021-031>035-040>046-301000-
SOUTHWEST NORTH DAKOTA

CITY           SKY/WX    TMP DP  RH WIND       PRES   REMARKS
BISMARCK       CLOUDY    54  50  86 E10       29.84F
DICKINSON      LGT RAIN  52  50  93 SE13      29.76F
GARRISON         N/A     53  50  89 SE10      29.83F
HETTINGER ARPT LGT RAIN  52  50  93 E12       29.75F
$$

NDZ004>008-012>016-024-026-027-054-301000-
NORTHEAST NORTH DAKOTA

CITY           SKY/WX    TMP DP  RH WIND       PRES   REMARKS
GRAND FORKS    CLEAR     43  41  93 SE7       30.01F
GRND FRKS AFB  CLEAR     42  42  99 SE6       30.01F
DEVILS LAKE    CLOUDY    48  41  76 SE17      29.93F
$$

NDZ022-023-025-028>030-036>039-047>053-301000-
SOUTHEAST NORTH DAKOTA

CITY           SKY/WX    TMP DP  RH WIND       PRES   REMARKS
FARGO          CLEAR     46  42  86 SE8       30.01F
JAMESTOWN      CLOUDY    48  45  89 SE13      29.92F
$$



USA.gov is the U.S. government's official web portal to all federal, state and local government web resources and services.